Powrót do katalogu

STARLINK-36759

AktywnyŁącznośćSSO
NORAD 68771·PAYLOAD·🇺🇸 United States

Wystrzelony Apr 19, 2026 z Vandenberg Space Force Base

Loading…

Następne Przeloty (najbliższe 24 godziny)

TLE

ŚwieżeSource: CelesTrak SupGP

Epoka: Sep 14, 2026, 22:41 UTC

1 68771C 26086F   26257.94562500  .00031839  00000+0  98855-3 0  2572
2 68771  97.2845 293.4099 0001096  91.3507 168.6700 15.33417308    17

Śledź STARLINK-36759 w czasie rzeczywistym z AllMySat

Download on the App Store